Time,TemperatureF,DewpointF,PressureIn,WindDirection,WindDirectionDegrees,WindSpeedMPH,WindSpeedGustMPH,Humidity,HourlyPrecipIn,Conditions,Clouds,dailyrainin,SoftwareType,DateUTC
2013-06-29 00:00:00,56.6,48.8,22.85,WSW,246,0.0,21.0,75,0.00,,,0.00,Wunderground v.1.15,2013-06-29 06:00:00,
2013-06-29 00:04:00,56.3,48.8,22.85,WSW,248,1.0,21.0,76,0.00,,,0.00,Wunderground v.1.15,2013-06-29 06:04:00,
2013-06-29 00:06:00,56.2,48.7,22.86,WSW,250,1.0,21.0,76,0.00,,,0.00,Wunderground v.1.15,2013-06-29 06:06:00,
2013-06-29 00:08:00,56.1,48.6,22.86,East,84,1.0,21.0,76,0.00,,,0.00,Wunderground v.1.15,2013-06-29 06:08:00,
2013-06-29 00:10:00,56.1,48.6,22.86,East,84,1.0,21.0,76,0.00,,,0.00,Wunderground v.1.15,2013-06-29 06:10:00,
2013-06-29 00:14:00,56.1,48.3,22.85,East,91,1.0,21.0,75,0.00,,,0.00,Wunderground v.1.15,2013-06-29 06:14:00,
2013-06-29 00:18:00,56.0,48.2,22.85,East,91,1.0,21.0,75,0.00,,,0.00,Wunderground v.1.15,2013-06-29 06:18:00,
2013-06-29 00:20:00,55.9,48.1,22.85,North,4,1.0,21.0,75,0.00,,,0.00,Wunderground v.1.15,2013-06-29 06:20:00,
2013-06-29 00:22:00,55.8,48.0,22.85,North,360,1.0,21.0,75,0.00,,,0.00,Wunderground v.1.15,2013-06-29 06:22:00,
2013-06-29 00:26:00,55.7,47.9,22.85,West,260,1.0,21.0,75,0.00,,,0.00,Wunderground v.1.15,2013-06-29 06:26:00,
2013-06-29 00:30:00,55.6,48.2,22.85,West,261,1.0,21.0,76,0.00,,,0.00,Wunderground v.1.15,2013-06-29 06:30:00,
2013-06-29 00:32:00,55.6,48.2,22.85,West,260,0.0,21.0,76,0.00,,,0.00,Wunderground v.1.15,2013-06-29 06:32:00,
2013-06-29 00:34:00,55.5,48.1,22.85,West,260,0.0,21.0,76,0.00,,,0.00,Wunderground v.1.15,2013-06-29 06:34:00,
2013-06-29 00:36:00,55.4,47.6,22.85,West,260,0.0,21.0,75,0.00,,,0.00,Wunderground v.1.15,2013-06-29 06:36:00,
2013-06-29 00:42:00,55.0,47.6,22.84,West,260,0.0,21.0,76,0.00,,,0.00,Wunderground v.1.15,2013-06-29 06:42:00,
2013-06-29 00:44:00,54.9,47.5,22.84,West,260,1.0,21.0,76,0.00,,,0.00,Wunderground v.1.15,2013-06-29 06:44:00,
2013-06-29 00:46:00,54.8,47.4,22.84,West,260,1.0,21.0,76,0.00,,,0.00,Wunderground v.1.15,2013-06-29 06:46:00,
2013-06-29 00:48:00,54.8,47.4,22.84,West,261,0.0,21.0,76,0.00,,,0.00,Wunderground v.1.15,2013-06-29 06:48:00,
2013-06-29 00:52:00,54.5,47.1,22.84,SE,134,0.0,21.0,76,0.00,,,0.00,Wunderground v.1.15,2013-06-29 06:52:00,
2013-06-29 00:54:00,54.4,47.0,22.84,SE,134,0.0,21.0,76,0.00,,,0.00,Wunderground v.1.15,2013-06-29 06:54:00,
2013-06-29 00:56:00,54.3,47.2,22.84,SE,134,0.0,21.0,77,0.00,,,0.00,Wunderground v.1.15,2013-06-29 06:56:00,
2013-06-29 00:58:00,54.2,46.8,22.84,SE,134,0.0,21.0,76,0.00,,,0.00,Wunderground v.1.15,2013-06-29 06:58:00,
2013-06-29 01:00:00,54.1,47.0,22.84,SE,134,0.0,21.0,77,0.00,,,0.00,Wunderground v.1.15,2013-06-29 07:00:00,
2013-06-29 01:02:00,53.9,46.9,22.84,SE,134,0.0,21.0,77,0.00,,,0.00,Wunderground v.1.15,2013-06-29 07:02:00,
2013-06-29 01:06:00,53.8,46.8,22.84,SE,136,0.0,21.0,77,0.00,,,0.00,Wunderground v.1.15,2013-06-29 07:06:00,
2013-06-29 01:08:00,53.7,47.0,22.84,SE,136,0.0,21.0,78,0.00,,,0.00,Wunderground v.1.15,2013-06-29 07:08:00,
2013-06-29 01:12:00,53.6,46.9,22.84,WSW,257,0.0,21.0,78,0.00,,,0.00,Wunderground v.1.15,2013-06-29 07:12:00,
2013-06-29 01:16:00,53.6,47.2,22.84,West,259,0.0,21.0,79,0.00,,,0.00,Wunderground v.1.15,2013-06-29 07:16:00,
2013-06-29 01:18:00,53.4,46.7,22.84,West,259,0.0,21.0,78,0.00,,,0.00,Wunderground v.1.15,2013-06-29 07:18:00,
2013-06-29 01:20:00,53.4,47.0,22.84,West,259,1.0,21.0,79,0.00,,,0.00,Wunderground v.1.15,2013-06-29 07:20:00,
2013-06-29 01:22:00,53.4,47.0,22.84,SE,134,1.0,1.0,79,0.00,,,0.00,Wunderground v.1.15,2013-06-29 07:22:00,
2013-06-29 01:26:00,53.2,46.9,22.84,SE,134,1.0,21.0,79,0.00,,,0.00,Wunderground v.1.15,2013-06-29 07:26:00,
2013-06-29 01:30:00,53.0,46.7,22.84,SE,134,0.0,21.0,79,0.00,,,0.00,Wunderground v.1.15,2013-06-29 07:30:00,
2013-06-29 01:32:00,52.9,46.6,22.84,SE,134,0.0,21.0,79,0.00,,,0.00,Wunderground v.1.15,2013-06-29 07:32:00,
2013-06-29 01:36:00,52.6,46.3,22.84,SE,134,0.0,21.0,79,0.00,,,0.00,Wunderground v.1.15,2013-06-29 07:36:00,
2013-06-29 01:38:00,52.5,46.5,22.83,SE,134,0.0,21.0,80,0.00,,,0.00,Wunderground v.1.15,2013-06-29 07:38:00,
2013-06-29 01:40:00,52.4,46.4,22.83,SE,134,0.0,21.0,80,0.00,,,0.00,Wunderground v.1.15,2013-06-29 07:40:00,
2013-06-29 01:42:00,52.4,46.7,22.83,SE,134,0.0,21.0,81,0.00,,,0.00,Wunderground v.1.15,2013-06-29 07:42:00,
2013-06-29 01:46:00,52.4,46.4,22.83,SE,134,0.0,21.0,80,0.00,,,0.00,Wunderground v.1.15,2013-06-29 07:46:00,
2013-06-29 01:48:00,52.4,46.4,22.83,SE,134,0.0,21.0,80,0.00,,,0.00,Wunderground v.1.15,2013-06-29 07:48:00,
2013-06-29 01:50:00,52.4,46.7,22.83,SE,134,0.0,21.0,81,0.00,,,0.00,Wunderground v.1.15,2013-06-29 07:50:00,
2013-06-29 01:52:00,52.4,46.7,22.83,SE,134,0.0,21.0,81,0.00,,,0.00,Wunderground v.1.15,2013-06-29 07:52:00,
2013-06-29 01:56:00,52.4,46.7,22.83,SE,134,0.0,21.0,81,0.00,,,0.00,Wunderground v.1.15,2013-06-29 07:56:00,
2013-06-29 01:58:00,52.4,46.4,22.83,SE,134,0.0,21.0,80,0.00,,,0.00,Wunderground v.1.15,2013-06-29 07:58:00,
2013-06-29 02:00:00,52.3,46.3,22.83,SE,134,0.0,21.0,80,0.00,,,0.00,Wunderground v.1.15,2013-06-29 08:00:00,
2013-06-29 02:02:00,52.2,46.2,22.83,SE,134,0.0,21.0,80,0.00,,,0.00,Wunderground v.1.15,2013-06-29 08:02:00,
2013-06-29 02:06:00,52.1,46.1,22.83,SE,134,0.0,21.0,80,0.00,,,0.00,Wunderground v.1.15,2013-06-29 08:06:00,
2013-06-29 02:08:00,52.0,46.3,22.83,SE,134,0.0,21.0,81,0.00,,,0.00,Wunderground v.1.15,2013-06-29 08:08:00,
2013-06-29 02:12:00,51.8,46.2,22.83,SE,134,0.0,21.0,81,0.00,,,0.00,Wunderground v.1.15,2013-06-29 08:12:00,
2013-06-29 02:14:00,51.7,46.1,22.83,SE,134,0.0,21.0,81,0.00,,,0.00,Wunderground v.1.15,2013-06-29 08:14:00,
2013-06-29 02:16:00,51.6,46.0,22.83,SE,134,0.0,21.0,81,0.00,,,0.00,Wunderground v.1.15,2013-06-29 08:16:00,
2013-06-29 02:20:00,51.5,45.9,22.83,SE,134,0.0,21.0,81,0.00,,,0.00,Wunderground v.1.15,2013-06-29 08:20:00,
2013-06-29 02:22:00,51.4,46.1,22.83,SE,134,0.0,21.0,82,0.00,,,0.00,Wunderground v.1.15,2013-06-29 08:22:00,
2013-06-29 02:24:00,51.3,46.0,22.83,SE,134,0.0,21.0,82,0.00,,,0.00,Wunderground v.1.15,2013-06-29 08:24:00,
2013-06-29 02:28:00,51.2,45.9,22.83,SE,134,1.0,21.0,82,0.00,,,0.00,Wunderground v.1.15,2013-06-29 08:28:00,
2013-06-29 02:30:00,51.2,45.9,22.83,SE,134,1.0,21.0,82,0.00,,,0.00,Wunderground v.1.15,2013-06-29 08:30:00,
2013-06-29 02:32:00,51.2,45.9,22.83,SE,134,1.0,1.0,82,0.00,,,0.00,Wunderground v.1.15,2013-06-29 08:32:00,
2013-06-29 02:34:00,51.2,45.9,22.83,SE,134,1.0,21.0,82,0.00,,,0.00,Wunderground v.1.15,2013-06-29 08:34:00,
2013-06-29 02:38:00,51.0,45.7,22.83,SE,134,0.0,21.0,82,0.00,,,0.00,Wunderground v.1.15,2013-06-29 08:38:00,
2013-06-29 02:42:00,50.8,45.5,22.83,SE,134,0.0,21.0,82,0.00,,,0.00,Wunderground v.1.15,2013-06-29 08:42:00,
2013-06-29 02:46:00,50.7,45.7,22.83,SE,134,0.0,21.0,83,0.00,,,0.00,Wunderground v.1.15,2013-06-29 08:46:00,
2013-06-29 02:48:00,50.7,45.7,22.83,SE,134,0.0,21.0,83,0.00,,,0.00,Wunderground v.1.15,2013-06-29 08:48:00,
2013-06-29 02:52:00,50.6,45.6,22.83,SE,134,0.0,21.0,83,0.00,,,0.00,Wunderground v.1.15,2013-06-29 08:52:00,
2013-06-29 02:54:00,50.6,45.6,22.83,SE,134,0.0,21.0,83,0.00,,,0.00,Wunderground v.1.15,2013-06-29 08:54:00,
2013-06-29 02:56:00,50.6,45.6,22.83,SE,134,0.0,21.0,83,0.00,,,0.00,Wunderground v.1.15,2013-06-29 08:56:00,
2013-06-29 02:58:00,50.6,45.6,22.83,SW,214,0.0,21.0,83,0.00,,,0.00,Wunderground v.1.15,2013-06-29 08:58:00,
2013-06-29 03:00:00,50.6,45.6,22.83,SW,214,0.0,21.0,83,0.00,,,0.00,Wunderground v.1.15,2013-06-29 09:00:00,
2013-06-29 03:04:00,50.6,45.6,22.83,SW,214,0.0,21.0,83,0.00,,,0.00,Wunderground v.1.15,2013-06-29 09:04:00,
2013-06-29 03:06:00,50.5,45.5,22.83,SW,214,0.0,21.0,83,0.00,,,0.00,Wunderground v.1.15,2013-06-29 09:06:00,
2013-06-29 03:10:00,50.3,45.3,22.83,SW,214,0.0,21.0,83,0.00,,,0.00,Wunderground v.1.15,2013-06-29 09:10:00,
2013-06-29 03:12:00,50.3,45.3,22.83,SW,214,0.0,21.0,83,0.00,,,0.00,Wunderground v.1.15,2013-06-29 09:12:00,
2013-06-29 03:18:00,50.3,45.6,22.83,SW,216,0.0,21.0,84,0.00,,,0.00,Wunderground v.1.15,2013-06-29 09:18:00,
2013-06-29 03:20:00,50.3,45.6,22.83,WSW,249,0.0,21.0,84,0.00,,,0.00,Wunderground v.1.15,2013-06-29 09:20:00,
2013-06-29 03:22:00,50.4,45.7,22.82,WSW,250,0.0,21.0,84,0.00,,,0.00,Wunderground v.1.15,2013-06-29 09:22:00,
2013-06-29 03:26:00,50.5,45.5,22.82,WSW,250,0.0,21.0,83,0.00,,,0.00,Wunderground v.1.15,2013-06-29 09:26:00,
2013-06-29 03:28:00,50.5,45.5,22.82,WSW,250,0.0,21.0,83,0.00,,,0.00,Wunderground v.1.15,2013-06-29 09:28:00,
2013-06-29 03:34:00,50.7,45.7,22.82,WSW,250,0.0,21.0,83,0.00,,,0.00,Wunderground v.1.15,2013-06-29 09:34:00,
2013-06-29 03:36:00,50.7,45.7,22.82,WSW,250,0.0,21.0,83,0.00,,,0.00,Wunderground v.1.15,2013-06-29 09:36:00,
2013-06-29 03:38:00,50.7,45.4,22.82,WSW,250,0.0,21.0,82,0.00,,,0.00,Wunderground v.1.15,2013-06-29 09:38:00,
2013-06-29 03:40:00,50.7,45.7,22.82,WSW,250,0.0,21.0,83,0.00,,,0.00,Wunderground v.1.15,2013-06-29 09:40:00,
2013-06-29 03:44:00,50.8,45.8,22.82,WSW,250,0.0,21.0,83,0.00,,,0.00,Wunderground v.1.15,2013-06-29 09:44:00,
2013-06-29 03:48:00,50.8,45.5,22.82,NW,316,0.0,21.0,82,0.00,,,0.00,Wunderground v.1.15,2013-06-29 09:48:00,
2013-06-29 03:50:00,50.8,45.5,22.82,NW,316,0.0,21.0,82,0.00,,,0.00,Wunderground v.1.15,2013-06-29 09:50:00,
2013-06-29 03:54:00,50.7,45.4,22.82,NW,316,0.0,21.0,82,0.00,,,0.00,Wunderground v.1.15,2013-06-29 09:54:00,
2013-06-29 03:56:00,50.6,45.3,22.82,NW,316,0.0,21.0,82,0.00,,,0.00,Wunderground v.1.15,2013-06-29 09:56:00,
2013-06-29 03:58:00,50.6,45.3,22.82,WNW,301,0.0,21.0,82,0.00,,,0.00,Wunderground v.1.15,2013-06-29 09:58:00,
2013-06-29 04:00:00,50.5,45.2,22.82,WNW,301,0.0,21.0,82,0.00,,,0.00,Wunderground v.1.15,2013-06-29 10:00:00,
2013-06-29 04:02:00,50.4,45.1,22.82,WNW,300,0.0,21.0,82,0.00,,,0.00,Wunderground v.1.15,2013-06-29 10:02:00,
2013-06-29 04:06:00,50.3,45.3,22.82,WNW,300,0.0,21.0,83,0.00,,,0.00,Wunderground v.1.15,2013-06-29 10:06:00,
2013-06-29 04:08:00,50.2,44.9,22.82,WNW,301,0.0,21.0,82,0.00,,,0.00,Wunderground v.1.15,2013-06-29 10:08:00,
2013-06-29 04:12:00,50.0,45.0,22.82,WNW,301,0.0,21.0,83,0.00,,,0.00,Wunderground v.1.15,2013-06-29 10:12:00,
2013-06-29 04:14:00,50.0,44.7,22.82,WNW,301,0.0,21.0,82,0.00,,,0.00,Wunderground v.1.15,2013-06-29 10:14:00,
2013-06-29 04:16:00,49.9,44.6,22.82,WNW,301,0.0,21.0,82,0.00,,,0.00,Wunderground v.1.15,2013-06-29 10:16:00,
2013-06-29 04:18:00,49.8,44.5,22.82,WNW,301,0.0,21.0,82,0.00,,,0.00,Wunderground v.1.15,2013-06-29 10:18:00,
2013-06-29 04:22:00,49.5,44.6,22.82,WNW,301,0.0,21.0,83,0.00,,,0.00,Wunderground v.1.15,2013-06-29 10:22:00,
2013-06-29 04:24:00,49.4,44.8,22.82,WNW,301,0.0,21.0,84,0.00,,,0.00,Wunderground v.1.15,2013-06-29 10:24:00,
2013-06-29 04:28:00,49.2,44.6,22.82,WNW,300,0.0,21.0,84,0.00,,,0.00,Wunderground v.1.15,2013-06-29 10:28:00,
2013-06-29 04:30:00,49.1,44.5,22.82,WNW,301,0.0,21.0,84,0.00,,,0.00,Wunderground v.1.15,2013-06-29 10:30:00,
2013-06-29 04:32:00,49.1,44.5,22.82,WNW,301,0.0,21.0,84,0.00,,,0.00,Wunderground v.1.15,2013-06-29 10:32:00,
2013-06-29 04:34:00,49.1,44.5,22.82,WNW,301,0.0,21.0,84,0.00,,,0.00,Wunderground v.1.15,2013-06-29 10:34:00,
2013-06-29 04:36:00,49.0,44.4,22.82,WNW,301,0.0,21.0,84,0.00,,,0.00,Wunderground v.1.15,2013-06-29 10:36:00,
2013-06-29 04:38:00,49.0,44.4,22.82,WNW,301,0.0,21.0,84,0.00,,,0.00,Wunderground v.1.15,2013-06-29 10:38:00,
2013-06-29 04:40:00,49.0,44.4,22.82,WNW,300,0.0,21.0,84,0.00,,,0.00,Wunderground v.1.15,2013-06-29 10:40:00,
2013-06-29 04:46:00,49.1,44.5,22.82,WNW,301,0.0,21.0,84,0.00,,,0.00,Wunderground v.1.15,2013-06-29 10:46:00,
2013-06-29 04:50:00,49.1,44.5,22.82,WNW,300,0.0,21.0,84,0.00,,,0.00,Wunderground v.1.15,2013-06-29 10:50:00,
2013-06-29 04:52:00,49.0,44.1,22.82,WNW,300,0.0,21.0,83,0.00,,,0.00,Wunderground v.1.15,2013-06-29 10:52:00,
2013-06-29 04:58:00,48.6,44.0,22.82,WNW,301,0.0,21.0,84,0.00,,,0.00,Wunderground v.1.15,2013-06-29 10:58:00,
2013-06-29 05:02:00,48.3,44.0,22.82,WNW,301,0.0,21.0,85,0.00,,,0.00,Wunderground v.1.15,2013-06-29 11:02:00,
2013-06-29 05:04:00,48.2,43.9,22.82,WNW,301,0.0,21.0,85,0.00,,,0.00,Wunderground v.1.15,2013-06-29 11:04:00,
2013-06-29 05:06:00,48.2,43.9,22.82,WNW,301,0.0,21.0,85,0.00,,,0.00,Wunderground v.1.15,2013-06-29 11:06:00,
2013-06-29 05:08:00,48.1,43.8,22.82,WNW,301,0.0,21.0,85,0.00,,,0.00,Wunderground v.1.15,2013-06-29 11:08:00,
2013-06-29 05:14:00,48.1,43.8,22.82,WNW,301,0.0,21.0,85,0.00,,,0.00,Wunderground v.1.15,2013-06-29 11:14:00,
2013-06-29 05:16:00,48.2,43.9,22.82,WNW,301,0.0,21.0,85,0.00,,,0.00,Wunderground v.1.15,2013-06-29 11:16:00,
2013-06-29 05:20:00,48.0,43.7,22.82,WNW,301,0.0,21.0,85,0.00,,,0.00,Wunderground v.1.15,2013-06-29 11:20:00,
2013-06-29 05:24:00,47.8,43.5,22.82,WNW,301,0.0,21.0,85,0.00,,,0.00,Wunderground v.1.15,2013-06-29 11:24:00,
2013-06-29 05:28:00,47.7,43.7,22.82,WNW,301,0.0,21.0,86,0.00,,,0.00,Wunderground v.1.15,2013-06-29 11:28:00,
2013-06-29 05:30:00,47.7,43.7,22.82,WNW,301,0.0,21.0,86,0.00,,,0.00,Wunderground v.1.15,2013-06-29 11:30:00,
2013-06-29 05:32:00,47.7,43.7,22.82,WNW,301,0.0,21.0,86,0.00,,,0.00,Wunderground v.1.15,2013-06-29 11:32:00,
2013-06-29 05:38:00,47.8,43.8,22.82,WNW,301,0.0,21.0,86,0.00,,,0.00,Wunderground v.1.15,2013-06-29 11:38:00,
2013-06-29 05:40:00,47.7,43.7,22.82,WNW,301,0.0,21.0,86,0.00,,,0.00,Wunderground v.1.15,2013-06-29 11:40:00,
2013-06-29 05:42:00,47.7,43.4,22.82,WNW,301,0.0,21.0,85,0.00,,,0.00,Wunderground v.1.15,2013-06-29 11:42:00,
2013-06-29 05:44:00,47.6,43.3,22.82,WNW,301,0.0,21.0,85,0.00,,,0.00,Wunderground v.1.15,2013-06-29 11:44:00,
2013-06-29 05:48:00,47.4,43.1,22.82,WNW,300,0.0,21.0,85,0.00,,,0.00,Wunderground v.1.15,2013-06-29 11:48:00,
2013-06-29 05:50:00,47.3,43.3,22.82,WNW,301,0.0,21.0,86,0.00,,,0.00,Wunderground v.1.15,2013-06-29 11:50:00,
2013-06-29 05:52:00,47.3,43.3,22.82,WNW,301,0.0,21.0,86,0.00,,,0.00,Wunderground v.1.15,2013-06-29 11:52:00,
2013-06-29 05:54:00,47.2,43.2,22.82,WNW,301,0.0,21.0,86,0.00,,,0.00,Wunderground v.1.15,2013-06-29 11:54:00,
2013-06-29 05:56:00,47.3,43.3,22.82,WNW,301,0.0,21.0,86,0.00,,,0.00,Wunderground v.1.15,2013-06-29 11:56:00,
2013-06-29 05:58:00,47.4,43.4,22.82,WNW,301,0.0,21.0,86,0.00,,,0.00,Wunderground v.1.15,2013-06-29 11:58:00,
2013-06-29 06:02:00,47.6,43.6,22.82,WNW,301,0.0,21.0,86,0.00,,,0.00,Wunderground v.1.15,2013-06-29 12:02:00,
2013-06-29 06:04:00,47.7,43.7,22.82,WNW,301,0.0,21.0,86,0.00,,,0.00,Wunderground v.1.15,2013-06-29 12:04:00,
2013-06-29 06:06:00,47.9,43.9,22.82,WNW,301,0.0,21.0,86,0.00,,,0.00,Wunderground v.1.15,2013-06-29 12:06:00,
2013-06-29 06:08:00,48.0,44.0,22.82,WNW,301,0.0,21.0,86,0.00,,,0.00,Wunderground v.1.15,2013-06-29 12:08:00,
2013-06-29 06:10:00,48.2,44.2,22.82,WNW,301,0.0,21.0,86,0.00,,,0.00,Wunderground v.1.15,2013-06-29 12:10:00,
2013-06-29 06:12:00,48.3,44.0,22.82,WNW,301,0.0,21.0,85,0.00,,,0.00,Wunderground v.1.15,2013-06-29 12:12:00,
2013-06-29 06:16:00,48.8,44.5,22.82,NW,320,0.0,21.0,85,0.00,,,0.00,Wunderground v.1.15,2013-06-29 12:16:00,
2013-06-29 06:18:00,49.1,44.8,22.82,NW,323,0.0,21.0,85,0.00,,,0.00,Wunderground v.1.15,2013-06-29 12:18:00,
2013-06-29 06:22:00,49.7,44.7,22.82,NW,323,0.0,21.0,83,0.00,,,0.00,Wunderground v.1.15,2013-06-29 12:22:00,
2013-06-29 06:24:00,49.6,44.6,22.82,NW,323,0.0,21.0,83,0.00,,,0.00,Wunderground v.1.15,2013-06-29 12:24:00,
2013-06-29 06:28:00,49.5,44.2,22.82,WNW,283,0.0,21.0,82,0.00,,,0.00,Wunderground v.1.15,2013-06-29 12:28:00,
2013-06-29 06:30:00,49.5,44.2,22.82,SW,233,0.0,21.0,82,0.00,,,0.00,Wunderground v.1.15,2013-06-29 12:30:00,
2013-06-29 06:32:00,49.6,44.6,22.82,SW,233,0.0,21.0,83,0.00,,,0.00,Wunderground v.1.15,2013-06-29 12:32:00,
2013-06-29 06:34:00,49.9,44.9,22.83,SW,233,0.0,21.0,83,0.00,,,0.00,Wunderground v.1.15,2013-06-29 12:34:00,
2013-06-29 06:38:00,50.9,45.3,22.83,SW,233,0.0,21.0,81,0.00,,,0.00,Wunderground v.1.15,2013-06-29 12:38:00,
2013-06-29 06:42:00,52.0,45.4,22.83,SW,233,0.0,21.0,78,0.00,,,0.00,Wunderground v.1.15,2013-06-29 12:42:00,
2013-06-29 06:44:00,52.3,45.6,22.83,SW,233,0.0,21.0,78,0.00,,,0.00,Wunderground v.1.15,2013-06-29 12:44:00,
2013-06-29 06:48:00,53.3,46.3,22.83,SW,233,0.0,21.0,77,0.00,,,0.00,Wunderground v.1.15,2013-06-29 12:48:00,
2013-06-29 06:52:00,55.1,47.0,22.83,SSE,155,0.0,21.0,74,0.00,,,0.00,Wunderground v.1.15,2013-06-29 12:52:00,
2013-06-29 06:54:00,55.6,46.7,22.83,SE,134,0.0,21.0,72,0.00,,,0.00,Wunderground v.1.15,2013-06-29 12:54:00,
2013-06-29 06:56:00,55.8,46.9,22.83,SE,134,0.0,21.0,72,0.00,,,0.00,Wunderground v.1.15,2013-06-29 12:56:00,
2013-06-29 06:58:00,56.3,47.4,22.83,SE,134,0.0,21.0,72,0.00,,,0.00,Wunderground v.1.15,2013-06-29 12:58:00,
2013-06-29 07:02:00,57.6,47.5,22.83,SE,131,0.0,21.0,69,0.00,,,0.00,Wunderground v.1.15,2013-06-29 13:02:00,
2013-06-29 07:04:00,58.0,47.1,22.83,SE,131,0.0,21.0,67,0.00,,,0.00,Wunderground v.1.15,2013-06-29 13:04:00,
2013-06-29 07:06:00,58.3,47.0,22.83,SE,131,0.0,21.0,66,0.00,,,0.00,Wunderground v.1.15,2013-06-29 13:06:00,
2013-06-29 07:08:00,58.7,47.0,22.83,SE,131,0.0,21.0,65,0.00,,,0.00,Wunderground v.1.15,2013-06-29 13:08:00,
2013-06-29 07:12:00,59.2,47.0,22.83,SE,133,0.0,21.0,64,0.00,,,0.00,Wunderground v.1.15,2013-06-29 13:12:00,
2013-06-29 07:14:00,59.4,47.2,22.83,SE,133,0.0,21.0,64,0.00,,,0.00,Wunderground v.1.15,2013-06-29 13:14:00,
2013-06-29 07:16:00,59.8,47.6,22.83,SE,133,0.0,21.0,64,0.00,,,0.00,Wunderground v.1.15,2013-06-29 13:16:00,
2013-06-29 07:18:00,60.1,47.5,22.83,SE,131,0.0,21.0,63,0.00,,,0.00,Wunderground v.1.15,2013-06-29 13:18:00,
2013-06-29 07:22:00,59.9,47.3,22.82,SE,131,0.0,21.0,63,0.00,,,0.00,Wunderground v.1.15,2013-06-29 13:22:00,
2013-06-29 07:24:00,59.8,47.2,22.82,SE,131,0.0,21.0,63,0.00,,,0.00,Wunderground v.1.15,2013-06-29 13:24:00,
2013-06-29 07:26:00,59.7,46.7,22.82,SE,131,0.0,21.0,62,0.00,,,0.00,Wunderground v.1.15,2013-06-29 13:26:00,
2013-06-29 07:30:00,59.5,46.5,22.82,SE,131,0.0,21.0,62,0.00,,,0.00,Wunderground v.1.15,2013-06-29 13:30:00,
2013-06-29 07:36:00,60.1,46.6,22.82,SE,131,0.0,21.0,61,0.00,,,0.00,Wunderground v.1.15,2013-06-29 13:36:00,
2013-06-29 07:38:00,60.3,46.8,22.82,SE,131,0.0,21.0,61,0.00,,,0.00,Wunderground v.1.15,2013-06-29 13:38:00,
2013-06-29 07:40:00,60.4,47.3,22.82,SE,131,0.0,21.0,62,0.00,,,0.00,Wunderground v.1.15,2013-06-29 13:40:00,
2013-06-29 07:44:00,60.7,47.6,22.82,SE,131,0.0,21.0,62,0.00,,,0.00,Wunderground v.1.15,2013-06-29 13:44:00,
2013-06-29 07:46:00,60.8,47.3,22.82,SE,131,0.0,21.0,61,0.00,,,0.00,Wunderground v.1.15,2013-06-29 13:46:00,
2013-06-29 07:50:00,60.9,48.2,22.82,SE,132,0.0,21.0,63,0.00,,,0.00,Wunderground v.1.15,2013-06-29 13:50:00,
2013-06-29 07:52:00,61.1,48.0,22.82,SE,132,0.0,21.0,62,0.00,,,0.00,Wunderground v.1.15,2013-06-29 13:52:00,
2013-06-29 07:58:00,62.4,47.9,22.82,ESE,115,0.0,21.0,59,0.00,,,0.00,Wunderground v.1.15,2013-06-29 13:58:00,
2013-06-29 08:00:00,62.9,47.4,22.82,ESE,117,1.0,21.0,57,0.00,,,0.00,Wunderground v.1.15,2013-06-29 14:00:00,
2013-06-29 08:04:00,63.6,48.1,22.82,SSE,155,1.0,21.0,57,0.00,,,0.00,Wunderground v.1.15,2013-06-29 14:04:00,
2013-06-29 08:06:00,63.5,48.5,22.82,South,191,1.0,21.0,58,0.00,,,0.00,Wunderground v.1.15,2013-06-29 14:06:00,
2013-06-29 08:10:00,63.8,49.2,22.82,SSW,194,1.0,21.0,59,0.00,,,0.00,Wunderground v.1.15,2013-06-29 14:10:00,
2013-06-29 08:12:00,64.1,48.5,22.82,WNW,287,1.0,1.0,57,0.00,,,0.00,Wunderground v.1.15,2013-06-29 14:12:00,
2013-06-29 08:16:00,64.8,48.2,22.82,SSW,193,1.0,21.0,55,0.00,,,0.00,Wunderground v.1.15,2013-06-29 14:16:00,
2013-06-29 08:18:00,64.8,47.8,22.82,South,188,1.0,21.0,54,0.00,,,0.00,Wunderground v.1.15,2013-06-29 14:18:00,
2013-06-29 08:22:00,64.7,48.2,22.82,SE,139,1.0,21.0,55,0.00,,,0.00,Wunderground v.1.15,2013-06-29 14:22:00,
2013-06-29 08:24:00,64.7,47.7,22.82,SSE,160,1.0,21.0,54,0.00,,,0.00,Wunderground v.1.15,2013-06-29 14:24:00,
2013-06-29 08:28:00,64.7,48.2,22.82,SSE,148,1.0,21.0,55,0.00,,,0.00,Wunderground v.1.15,2013-06-29 14:28:00,
2013-06-29 08:30:00,65.0,48.4,22.82,SSE,148,1.0,21.0,55,0.00,,,0.00,Wunderground v.1.15,2013-06-29 14:30:00,
2013-06-29 08:34:00,65.6,47.0,22.82,SE,132,1.0,21.0,51,0.00,,,0.00,Wunderground v.1.15,2013-06-29 14:34:00,
2013-06-29 08:36:00,65.9,47.8,22.82,SE,133,1.0,21.0,52,0.00,,,0.00,Wunderground v.1.15,2013-06-29 14:36:00,
2013-06-29 08:38:00,66.3,48.7,22.82,SE,146,0.0,21.0,53,0.00,,,0.00,Wunderground v.1.15,2013-06-29 14:38:00,
2013-06-29 08:44:00,67.3,47.5,22.82,South,172,1.0,21.0,49,0.00,,,0.00,Wunderground v.1.15,2013-06-29 14:44:00,
2013-06-29 08:46:00,67.7,47.3,22.82,SSW,208,1.0,21.0,48,0.00,,,0.00,Wunderground v.1.15,2013-06-29 14:46:00,
2013-06-29 08:48:00,67.9,47.5,22.82,SSW,194,1.0,21.0,48,0.00,,,0.00,Wunderground v.1.15,2013-06-29 14:48:00,
2013-06-29 08:50:00,67.9,46.9,22.82,SSW,204,1.0,21.0,47,0.00,,,0.00,Wunderground v.1.15,2013-06-29 14:50:00,
2013-06-29 08:52:00,67.7,46.7,22.82,SSW,205,1.0,1.0,47,0.00,,,0.00,Wunderground v.1.15,2013-06-29 14:52:00,
2013-06-29 08:58:00,68.5,48.0,22.82,SE,136,1.0,21.0,48,0.00,,,0.00,Wunderground v.1.15,2013-06-29 14:58:00,
2013-06-29 09:00:00,68.8,47.2,22.82,SE,135,1.0,21.0,46,0.00,,,0.00,Wunderground v.1.15,2013-06-29 15:00:00,
2013-06-29 09:06:00,69.9,47.0,22.81,NNW,332,1.0,21.0,44,0.00,,,0.00,Wunderground v.1.15,2013-06-29 15:06:00,
2013-06-29 09:08:00,70.1,47.2,22.81,South,171,1.0,21.0,44,0.00,,,0.00,Wunderground v.1.15,2013-06-29 15:08:00,
2013-06-29 09:10:00,70.5,47.5,22.82,SSE,153,1.0,21.0,44,0.00,,,0.00,Wunderground v.1.15,2013-06-29 15:10:00,
2013-06-29 09:14:00,71.5,47.2,22.81,South,176,1.0,21.0,42,0.00,,,0.00,Wunderground v.1.15,2013-06-29 15:14:00,
2013-06-29 09:16:00,71.7,47.4,22.81,South,183,1.0,21.0,42,0.00,,,0.00,Wunderground v.1.15,2013-06-29 15:16:00,
2013-06-29 09:18:00,71.6,47.3,22.81,WSW,239,1.0,21.0,42,0.00,,,0.00,Wunderground v.1.15,2013-06-29 15:18:00,
2013-06-29 09:24:00,71.8,47.5,22.81,SW,222,1.0,21.0,42,0.00,,,0.00,Wunderground v.1.15,2013-06-29 15:24:00,
2013-06-29 09:28:00,72.3,47.9,22.81,NE,56,1.0,21.0,42,0.00,,,0.00,Wunderground v.1.15,2013-06-29 15:28:00,
2013-06-29 09:32:00,72.8,47.7,22.81,NNW,339,2.0,2.0,41,0.00,,,0.00,Wunderground v.1.15,2013-06-29 15:32:00,
2013-06-29 09:34:00,73.3,47.5,22.81,East,96,1.0,21.0,40,0.00,,,0.00,Wunderground v.1.15,2013-06-29 15:34:00,
2013-06-29 09:36:00,74.0,48.8,22.81,NE,50,1.0,21.0,41,0.00,,,0.00,Wunderground v.1.15,2013-06-29 15:36:00,
2013-06-29 09:42:00,74.0,46.1,22.81,NE,53,1.0,1.0,37,0.00,,,0.00,Wunderground v.1.15,2013-06-29 15:42:00,
2013-06-29 09:48:00,74.6,45.9,22.81,North,4,2.0,21.0,36,0.00,,,0.00,Wunderground v.1.15,2013-06-29 15:48:00,
2013-06-29 09:50:00,74.4,46.4,22.80,NE,56,2.0,21.0,37,0.00,,,0.00,Wunderground v.1.15,2013-06-29 15:50:00,
2013-06-29 09:52:00,74.2,45.5,22.80,ENE,67,2.0,2.0,36,0.00,,,0.00,Wunderground v.1.15,2013-06-29 15:52:00,
2013-06-29 09:56:00,74.8,46.1,22.80,East,89,2.0,21.0,36,0.00,,,0.00,Wunderground v.1.15,2013-06-29 15:56:00,
2013-06-29 09:58:00,75.1,44.8,22.80,North,4,2.0,21.0,34,0.00,,,0.00,Wunderground v.1.15,2013-06-29 15:58:00,
2013-06-29 10:00:00,75.1,44.8,22.80,NNE,29,2.0,21.0,34,0.00,,,0.00,Wunderground v.1.15,2013-06-29 16:00:00,
2013-06-29 10:02:00,74.9,43.8,22.80,NE,53,2.0,2.0,33,0.00,,,0.00,Wunderground v.1.15,2013-06-29 16:02:00,
2013-06-29 10:04:00,74.8,44.5,22.80,SW,217,2.0,21.0,34,0.00,,,0.00,Wunderground v.1.15,2013-06-29 16:04:00,
2013-06-29 10:08:00,75.4,45.1,22.80,ENE,72,2.0,21.0,34,0.00,,,0.00,Wunderground v.1.15,2013-06-29 16:08:00,
2013-06-29 10:10:00,75.4,44.3,22.80,NE,44,3.0,21.0,33,0.00,,,0.00,Wunderground v.1.15,2013-06-29 16:10:00,
2013-06-29 10:12:00,75.3,44.2,22.80,NE,54,3.0,21.0,33,0.00,,,0.00,Wunderground v.1.15,2013-06-29 16:12:00,
2013-06-29 10:14:00,75.2,44.9,22.80,SE,131,4.0,21.0,34,0.00,,,0.00,Wunderground v.1.15,2013-06-29 16:14:00,
2013-06-29 10:16:00,75.3,43.4,22.80,ENE,68,5.0,21.0,32,0.00,,,0.00,Wunderground v.1.15,2013-06-29 16:16:00,
2013-06-29 10:18:00,75.0,43.1,22.80,NE,49,6.0,21.0,32,0.00,,,0.00,Wunderground v.1.15,2013-06-29 16:18:00,
2013-06-29 10:22:00,75.3,42.6,22.80,NE,49,5.0,5.0,31,0.00,,,0.00,Wunderground v.1.15,2013-06-29 16:22:00,
2013-06-29 10:24:00,75.3,42.6,22.80,NE,47,5.0,6.0,31,0.00,,,0.00,Wunderground v.1.15,2013-06-29 16:24:00,
2013-06-29 10:26:00,75.2,41.6,22.80,NE,53,5.0,8.0,30,0.00,,,0.00,Wunderground v.1.15,2013-06-29 16:26:00,
2013-06-29 10:28:00,75.2,42.5,22.80,ESE,113,5.0,21.0,31,0.00,,,0.00,Wunderground v.1.15,2013-06-29 16:28:00,
2013-06-29 10:32:00,75.8,43.8,22.80,ENE,65,5.0,5.0,32,0.00,,,0.00,Wunderground v.1.15,2013-06-29 16:32:00,
2013-06-29 10:38:00,76.1,43.3,22.80,NNE,19,5.0,21.0,31,0.00,,,0.00,Wunderground v.1.15,2013-06-29 16:38:00,
2013-06-29 10:40:00,76.6,43.7,22.80,NNW,333,5.0,21.0,31,0.00,,,0.00,Wunderground v.1.15,2013-06-29 16:40:00,
2013-06-29 10:44:00,77.0,44.0,22.80,NNE,25,5.0,21.0,31,0.00,,,0.00,Wunderground v.1.15,2013-06-29 16:44:00,
2013-06-29 10:46:00,77.2,45.0,22.80,North,8,5.0,21.0,32,0.00,,,0.00,Wunderground v.1.15,2013-06-29 16:46:00,
2013-06-29 10:48:00,77.1,43.3,22.79,NNW,327,4.0,21.0,30,0.00,,,0.00,Wunderground v.1.15,2013-06-29 16:48:00,
2013-06-29 10:50:00,77.1,43.3,22.80,NE,54,5.0,21.0,30,0.00,,,0.00,Wunderground v.1.15,2013-06-29 16:50:00,
2013-06-29 10:52:00,77.2,43.4,22.79,East,101,5.0,5.0,30,0.00,,,0.00,Wunderground v.1.15,2013-06-29 16:52:00,
2013-06-29 10:58:00,77.3,42.6,22.80,WNW,300,5.0,21.0,29,0.00,,,0.00,Wunderground v.1.15,2013-06-29 16:58:00,
2013-06-29 11:02:00,76.4,42.7,22.80,NE,49,5.0,21.0,30,0.00,,,0.00,Wunderground v.1.15,2013-06-29 17:02:00,
2013-06-29 11:04:00,75.9,42.2,22.80,NW,319,5.0,21.0,30,0.00,,,0.00,Wunderground v.1.15,2013-06-29 17:04:00,
2013-06-29 11:06:00,75.5,42.7,22.80,ENE,63,5.0,21.0,31,0.00,,,0.00,Wunderground v.1.15,2013-06-29 17:06:00,
2013-06-29 11:10:00,75.1,47.8,22.80,NW,312,4.0,21.0,38,0.00,,,0.00,Wunderground v.1.15,2013-06-29 17:10:00,
2013-06-29 11:12:00,74.5,47.9,22.80,ENE,70,3.0,21.0,39,0.00,,,0.00,Wunderground v.1.15,2013-06-29 17:12:00,
2013-06-29 11:14:00,73.7,45.8,22.80,WNW,283,3.0,21.0,37,0.00,,,0.00,Wunderground v.1.15,2013-06-29 17:14:00,
2013-06-29 11:16:00,72.9,45.8,22.80,East,101,3.0,21.0,38,0.00,,,0.00,Wunderground v.1.15,2013-06-29 17:16:00,
2013-06-29 11:20:00,72.0,47.0,22.80,NNE,27,3.0,21.0,41,0.00,,,0.01,Wunderground v.1.15,2013-06-29 17:20:00,
2013-06-29 11:22:00,71.8,45.5,22.80,NNE,15,4.0,4.0,39,0.00,,,0.01,Wunderground v.1.15,2013-06-29 17:22:00,
2013-06-29 11:26:00,71.8,46.8,22.80,ENE,61,3.0,21.0,41,0.00,,,0.01,Wunderground v.1.15,2013-06-29 17:26:00,
2013-06-29 11:28:00,71.9,45.6,22.80,ENE,67,3.0,21.0,39,0.00,,,0.01,Wunderground v.1.15,2013-06-29 17:28:00,
2013-06-29 11:32:00,72.0,45.7,22.80,NW,305,3.0,3.0,39,0.00,,,0.01,Wunderground v.1.15,2013-06-29 17:32:00,
2013-06-29 11:34:00,72.4,47.4,22.80,NE,46,4.0,4.0,41,0.00,,,0.01,Wunderground v.1.15,2013-06-29 17:34:00,
2013-06-29 11:38:00,73.5,45.6,22.80,NNW,347,4.0,21.0,37,0.00,,,0.01,Wunderground v.1.15,2013-06-29 17:38:00,
2013-06-29 11:40:00,73.6,45.7,22.80,NE,40,3.0,21.0,37,0.00,,,0.01,Wunderground v.1.15,2013-06-29 17:40:00,
2013-06-29 11:42:00,73.9,46.0,22.80,NE,46,4.0,4.0,37,0.00,,,0.01,Wunderground v.1.15,2013-06-29 17:42:00,
2013-06-29 11:44:00,74.2,46.2,22.80,North,6,3.0,21.0,37,0.00,,,0.01,Wunderground v.1.15,2013-06-29 17:44:00,
2013-06-29 11:48:00,75.5,45.9,22.80,NNE,13,3.0,21.0,35,0.00,,,0.01,Wunderground v.1.15,2013-06-29 17:48:00,
2013-06-29 11:50:00,75.5,45.9,22.80,NNW,329,3.0,21.0,35,0.00,,,0.01,Wunderground v.1.15,2013-06-29 17:50:00,
2013-06-29 11:52:00,75.4,45.8,22.80,NNW,339,4.0,21.0,35,0.00,,,0.01,Wunderground v.1.15,2013-06-29 17:52:00,
2013-06-29 11:54:00,75.3,47.2,22.80,NNE,22,4.0,21.0,37,0.00,,,0.01,Wunderground v.1.15,2013-06-29 17:54:00,
2013-06-29 11:58:00,75.4,48.0,22.80,East,94,5.0,21.0,38,0.00,,,0.01,Wunderground v.1.15,2013-06-29 17:58:00,
2013-06-29 12:00:00,75.5,45.9,22.80,North,6,5.0,21.0,35,0.00,,,0.01,Wunderground v.1.15,2013-06-29 18:00:00,
2013-06-29 12:02:00,75.5,46.7,22.80,ENE,70,5.0,5.0,36,0.00,,,0.01,Wunderground v.1.15,2013-06-29 18:02:00,
2013-06-29 12:04:00,75.5,45.2,22.80,NW,325,5.0,21.0,34,0.00,,,0.01,Wunderground v.1.15,2013-06-29 18:04:00,
2013-06-29 12:10:00,75.7,46.8,22.80,NNW,348,5.0,21.0,36,0.00,,,0.01,Wunderground v.1.15,2013-06-29 18:10:00,
2013-06-29 12:12:00,75.6,45.2,22.80,NNW,333,6.0,21.0,34,0.00,,,0.01,Wunderground v.1.15,2013-06-29 18:12:00,
2013-06-29 12:16:00,75.5,45.9,22.80,NW,322,5.0,21.0,35,0.00,,,0.01,Wunderground v.1.15,2013-06-29 18:16:00,
2013-06-29 12:18:00,75.3,45.7,22.80,ENE,65,6.0,21.0,35,0.00,,,0.01,Wunderground v.1.15,2013-06-29 18:18:00,
2013-06-29 12:20:00,75.3,46.5,22.80,NNW,330,6.0,21.0,36,0.00,,,0.01,Wunderground v.1.15,2013-06-29 18:20:00,
2013-06-29 12:26:00,75.1,47.8,22.79,ENE,65,5.0,21.0,38,0.00,,,0.01,Wunderground v.1.15,2013-06-29 18:26:00,
2013-06-29 12:28:00,75.0,48.4,22.79,NNE,16,5.0,21.0,39,0.00,,,0.01,Wunderground v.1.15,2013-06-29 18:28:00,
2013-06-29 12:30:00,74.9,48.3,22.79,East,92,4.0,21.0,39,0.00,,,0.01,Wunderground v.1.15,2013-06-29 18:30:00,
2013-06-29 12:32:00,74.5,48.6,22.79,East,89,4.0,4.0,40,0.00,,,0.01,Wunderground v.1.15,2013-06-29 18:32:00,
2013-06-29 12:34:00,74.2,50.3,22.80,NE,44,4.0,21.0,43,0.00,,,0.01,Wunderground v.1.15,2013-06-29 18:34:00,
2013-06-29 12:38:00,73.1,51.1,22.80,NE,49,4.0,21.0,46,0.00,,,0.01,Wunderground v.1.15,2013-06-29 18:38:00,
2013-06-29 12:40:00,72.0,52.3,22.80,NW,305,4.0,21.0,50,0.00,,,0.01,Wunderground v.1.15,2013-06-29 18:40:00,
2013-06-29 12:42:00,71.1,52.0,22.80,ENE,74,5.0,5.0,51,0.00,,,0.01,Wunderground v.1.15,2013-06-29 18:42:00,
2013-06-29 12:44:00,70.1,54.2,22.80,West,264,4.0,21.0,57,0.67,,,0.03,Wunderground v.1.15,2013-06-29 18:44:00,
2013-06-29 12:50:00,67.7,55.5,22.81,NE,40,2.0,21.0,65,0.10,,,0.03,Wunderground v.1.15,2013-06-29 18:50:00,
2013-06-29 12:52:00,67.0,55.3,22.80,ENE,70,2.0,2.0,66,0.07,,,0.03,Wunderground v.1.15,2013-06-29 18:52:00,
2013-06-29 12:58:00,66.4,53.8,22.81,NE,51,2.0,21.0,64,0.04,,,0.03,Wunderground v.1.15,2013-06-29 18:58:00,
2013-06-29 13:00:00,66.4,54.3,22.80,NNE,22,2.0,21.0,65,0.04,,,0.03,Wunderground v.1.15,2013-06-29 19:00:00,
2013-06-29 13:02:00,66.5,54.4,22.81,SE,131,2.0,2.0,65,0.00,,,0.03,Wunderground v.1.15,2013-06-29 19:02:00,
2013-06-29 13:06:00,66.6,54.0,22.81,SE,142,2.0,21.0,64,0.00,,,0.03,Wunderground v.1.15,2013-06-29 19:06:00,
2013-06-29 13:10:00,66.6,52.7,22.82,East,91,2.0,21.0,61,0.00,,,0.03,Wunderground v.1.15,2013-06-29 19:10:00,
2013-06-29 13:12:00,66.6,53.6,22.82,ESE,117,2.0,21.0,63,0.00,,,0.03,Wunderground v.1.15,2013-06-29 19:12:00,
2013-06-29 13:14:00,66.5,52.6,22.82,South,174,2.0,21.0,61,0.00,,,0.03,Wunderground v.1.15,2013-06-29 19:14:00,
2013-06-29 13:18:00,66.5,53.9,22.82,SW,215,2.0,21.0,64,0.00,,,0.03,Wunderground v.1.15,2013-06-29 19:18:00,
2013-06-29 13:20:00,66.4,53.0,22.82,SSE,150,1.0,21.0,62,0.00,,,0.03,Wunderground v.1.15,2013-06-29 19:20:00,
2013-06-29 13:22:00,66.3,52.9,22.82,SE,145,1.0,21.0,62,0.00,,,0.03,Wunderground v.1.15,2013-06-29 19:22:00,
2013-06-29 13:26:00,66.0,53.0,22.81,South,181,1.0,21.0,63,0.00,,,0.04,Wunderground v.1.15,2013-06-29 19:26:00,
2013-06-29 13:28:00,65.8,53.7,22.81,SE,139,2.0,21.0,65,0.00,,,0.04,Wunderground v.1.15,2013-06-29 19:28:00,
2013-06-29 13:30:00,65.6,54.3,22.82,NNE,32,2.0,21.0,67,0.00,,,0.04,Wunderground v.1.15,2013-06-29 19:30:00,
2013-06-29 13:32:00,65.4,53.7,22.82,WSW,245,1.0,1.0,66,0.00,,,0.04,Wunderground v.1.15,2013-06-29 19:32:00,
2013-06-29 13:38:00,64.8,54.8,22.82,North,351,1.0,21.0,70,0.00,,,0.04,Wunderground v.1.15,2013-06-29 19:38:00,
2013-06-29 13:40:00,64.5,53.3,22.82,North,351,1.0,21.0,67,0.00,,,0.04,Wunderground v.1.15,2013-06-29 19:40:00,
2013-06-29 13:42:00,64.3,56.2,22.82,WSW,246,1.0,21.0,75,0.00,,,0.05,Wunderground v.1.15,2013-06-29 19:42:00,
2013-06-29 13:44:00,63.9,55.4,22.82,West,270,2.0,21.0,74,0.31,,,0.06,Wunderground v.1.15,2013-06-29 19:44:00,
2013-06-29 13:46:00,63.4,56.1,22.83,WNW,302,2.0,21.0,77,0.25,,,0.06,Wunderground v.1.15,2013-06-29 19:46:00,
2013-06-29 13:50:00,62.6,56.0,22.83,SSW,193,3.0,21.0,79,0.14,,,0.07,Wunderground v.1.15,2013-06-29 19:50:00,
2013-06-29 13:52:00,62.2,55.6,22.81,South,174,3.0,21.0,79,0.14,,,0.07,Wunderground v.1.15,2013-06-29 19:52:00,
2013-06-29 13:56:00,61.9,55.3,22.80,NW,326,3.0,21.0,79,0.07,,,0.07,Wunderground v.1.15,2013-06-29 19:56:00,
2013-06-29 14:00:00,62.0,55.4,22.80,East,96,4.0,21.0,79,0.05,,,0.07,Wunderground v.1.15,2013-06-29 20:00:00,
2013-06-29 14:02:00,62.0,55.8,22.80,SW,231,4.0,4.0,80,0.04,,,0.07,Wunderground v.1.15,2013-06-29 20:02:00,
2013-06-29 14:06:00,62.1,55.9,22.81,NW,312,3.0,21.0,80,0.00,,,0.07,Wunderground v.1.15,2013-06-29 20:06:00,
2013-06-29 14:08:00,62.2,56.6,22.81,NW,311,3.0,21.0,82,0.00,,,0.07,Wunderground v.1.15,2013-06-29 20:08:00,
2013-06-29 14:10:00,62.4,56.1,22.81,NNE,15,2.0,21.0,80,0.00,,,0.07,Wunderground v.1.15,2013-06-29 20:10:00,
2013-06-29 14:12:00,62.4,54.7,22.81,West,268,2.0,2.0,76,0.00,,,0.07,Wunderground v.1.15,2013-06-29 20:12:00,
2013-06-29 14:14:00,62.6,54.9,22.81,West,277,2.0,21.0,76,0.00,,,0.07,Wunderground v.1.15,2013-06-29 20:14:00,
2013-06-29 14:16:00,62.7,55.4,22.81,WSW,247,2.0,21.0,77,0.00,,,0.07,Wunderground v.1.15,2013-06-29 20:16:00,
2013-06-29 14:18:00,63.0,55.3,22.81,SSW,204,2.0,21.0,76,0.00,,,0.07,Wunderground v.1.15,2013-06-29 20:18:00,
2013-06-29 14:20:00,63.2,55.5,22.81,SSW,194,2.0,21.0,76,0.00,,,0.07,Wunderground v.1.15,2013-06-29 20:20:00,
2013-06-29 14:22:00,63.3,55.6,22.81,West,281,2.0,2.0,76,0.00,,,0.07,Wunderground v.1.15,2013-06-29 20:22:00,
2013-06-29 14:24:00,63.5,55.4,22.81,WNW,292,2.0,21.0,75,0.00,,,0.07,Wunderground v.1.15,2013-06-29 20:24:00,
2013-06-29 14:26:00,63.8,56.1,22.81,SW,226,2.0,21.0,76,0.00,,,0.07,Wunderground v.1.15,2013-06-29 20:26:00,
2013-06-29 14:28:00,64.1,55.6,22.81,SW,217,2.0,21.0,74,0.00,,,0.07,Wunderground v.1.15,2013-06-29 20:28:00,
2013-06-29 14:30:00,64.3,55.5,22.81,WSW,240,2.0,21.0,73,0.00,,,0.07,Wunderground v.1.15,2013-06-29 20:30:00,
2013-06-29 14:32:00,64.5,56.0,22.81,SW,215,3.0,21.0,74,0.00,,,0.07,Wunderground v.1.15,2013-06-29 20:32:00,
2013-06-29 14:34:00,65.0,56.5,22.81,SSW,212,3.0,21.0,74,0.00,,,0.07,Wunderground v.1.15,2013-06-29 20:34:00,
2013-06-29 14:36:00,65.6,56.3,22.81,WSW,240,4.0,21.0,72,0.00,,,0.07,Wunderground v.1.15,2013-06-29 20:36:00,
2013-06-29 14:40:00,66.7,57.0,22.81,WSW,255,3.0,21.0,71,0.00,,,0.07,Wunderground v.1.15,2013-06-29 20:40:00,
2013-06-29 14:42:00,66.9,54.3,22.81,SW,215,3.0,3.0,64,0.00,,,0.07,Wunderground v.1.15,2013-06-29 20:42:00,
2013-06-29 14:44:00,67.2,55.9,22.81,West,264,3.0,21.0,67,0.00,,,0.07,Wunderground v.1.15,2013-06-29 20:44:00,
2013-06-29 14:48:00,68.0,54.5,22.81,WSW,252,2.0,21.0,62,0.00,,,0.07,Wunderground v.1.15,2013-06-29 20:48:00,
2013-06-29 14:50:00,68.4,54.0,22.81,SSW,197,2.0,21.0,60,0.00,,,0.07,Wunderground v.1.15,2013-06-29 20:50:00,
2013-06-29 14:52:00,68.5,53.1,22.81,WSW,256,2.0,21.0,58,0.00,,,0.07,Wunderground v.1.15,2013-06-29 20:52:00,
2013-06-29 14:54:00,68.3,52.9,22.81,SSW,198,2.0,21.0,58,0.00,,,0.07,Wunderground v.1.15,2013-06-29 20:54:00,
2013-06-29 14:56:00,68.1,53.2,22.80,SE,139,2.0,21.0,59,0.00,,,0.07,Wunderground v.1.15,2013-06-29 20:56:00,
2013-06-29 15:00:00,68.1,52.3,22.80,North,1,2.0,21.0,57,0.00,,,0.07,Wunderground v.1.15,2013-06-29 21:00:00,
2013-06-29 15:02:00,68.2,52.4,22.80,NW,312,1.0,21.0,57,0.00,,,0.07,Wunderground v.1.15,2013-06-29 21:02:00,
2013-06-29 15:04:00,68.3,52.9,22.80,SW,214,1.0,21.0,58,0.00,,,0.07,Wunderground v.1.15,2013-06-29 21:04:00,
2013-06-29 15:06:00,68.4,53.0,22.80,SSW,212,1.0,21.0,58,0.00,,,0.07,Wunderground v.1.15,2013-06-29 21:06:00,
2013-06-29 15:08:00,68.5,52.7,22.80,NW,306,1.0,21.0,57,0.00,,,0.07,Wunderground v.1.15,2013-06-29 21:08:00,
2013-06-29 15:10:00,68.5,52.2,22.80,WSW,246,1.0,21.0,56,0.00,,,0.07,Wunderground v.1.15,2013-06-29 21:10:00,
2013-06-29 15:14:00,68.6,52.8,22.80,SSW,208,1.0,21.0,57,0.00,,,0.07,Wunderground v.1.15,2013-06-29 21:14:00,
2013-06-29 15:16:00,68.8,52.9,22.80,SSW,205,1.0,21.0,57,0.00,,,0.07,Wunderground v.1.15,2013-06-29 21:16:00,
2013-06-29 15:18:00,69.0,52.6,22.80,NNE,26,1.0,21.0,56,0.00,,,0.07,Wunderground v.1.15,2013-06-29 21:18:00,
2013-06-29 15:22:00,69.1,51.8,22.80,ESE,113,1.0,21.0,54,0.00,,,0.07,Wunderground v.1.15,2013-06-29 21:22:00,
2013-06-29 15:24:00,69.0,52.6,22.80,SSW,205,1.0,21.0,56,0.00,,,0.07,Wunderground v.1.15,2013-06-29 21:24:00,
2013-06-29 15:26:00,69.0,52.6,22.80,WSW,243,1.0,21.0,56,0.00,,,0.07,Wunderground v.1.15,2013-06-29 21:26:00,
2013-06-29 15:28:00,68.8,52.5,22.80,WSW,249,2.0,21.0,56,0.00,,,0.07,Wunderground v.1.15,2013-06-29 21:28:00,
2013-06-29 15:32:00,69.0,53.6,22.80,SW,232,1.0,1.0,58,0.00,,,0.07,Wunderground v.1.15,2013-06-29 21:32:00,
2013-06-29 15:34:00,69.2,53.8,22.79,WSW,243,1.0,21.0,58,0.00,,,0.07,Wunderground v.1.15,2013-06-29 21:34:00,
2013-06-29 15:36:00,69.2,52.3,22.80,WSW,239,1.0,21.0,55,0.00,,,0.07,Wunderground v.1.15,2013-06-29 21:36:00,
2013-06-29 15:38:00,69.3,52.4,22.80,SW,235,0.0,21.0,55,0.00,,,0.07,Wunderground v.1.15,2013-06-29 21:38:00,
2013-06-29 15:42:00,69.4,52.0,22.80,NW,326,0.0,21.0,54,0.00,,,0.07,Wunderground v.1.15,2013-06-29 21:42:00,
2013-06-29 15:44:00,69.4,52.5,22.80,NW,326,1.0,21.0,55,0.00,,,0.07,Wunderground v.1.15,2013-06-29 21:44:00,
2013-06-29 15:48:00,69.7,52.3,22.79,WSW,246,1.0,21.0,54,0.00,,,0.07,Wunderground v.1.15,2013-06-29 21:48:00,
2013-06-29 15:50:00,69.7,52.3,22.79,NNW,345,1.0,21.0,54,0.00,,,0.07,Wunderground v.1.15,2013-06-29 21:50:00,
2013-06-29 15:52:00,69.7,52.3,22.79,WSW,251,1.0,1.0,54,0.00,,,0.07,Wunderground v.1.15,2013-06-29 21:52:00,
2013-06-29 15:56:00,70.1,51.1,22.79,WSW,246,1.0,21.0,51,0.00,,,0.07,Wunderground v.1.15,2013-06-29 21:56:00,
2013-06-29 15:58:00,70.3,51.8,22.79,SE,133,1.0,21.0,52,0.00,,,0.07,Wunderground v.1.15,2013-06-29 21:58:00,
2013-06-29 16:00:00,70.6,52.1,22.79,SW,228,1.0,21.0,52,0.00,,,0.07,Wunderground v.1.15,2013-06-29 22:00:00,
2013-06-29 16:02:00,70.5,51.5,22.79,West,260,1.0,21.0,51,0.00,,,0.07,Wunderground v.1.15,2013-06-29 22:02:00,
2013-06-29 16:04:00,70.3,51.3,22.79,SW,218,1.0,21.0,51,0.00,,,0.07,Wunderground v.1.15,2013-06-29 22:04:00,
2013-06-29 16:06:00,70.2,52.3,22.79,SSW,211,1.0,21.0,53,0.00,,,0.07,Wunderground v.1.15,2013-06-29 22:06:00,
2013-06-29 16:08:00,70.1,51.7,22.79,SSW,207,1.0,21.0,52,0.00,,,0.07,Wunderground v.1.15,2013-06-29 22:08:00,
2013-06-29 16:14:00,70.1,52.7,22.79,NNE,16,1.0,21.0,54,0.00,,,0.07,Wunderground v.1.15,2013-06-29 22:14:00,
2013-06-29 16:16:00,70.0,52.1,22.79,NNE,25,1.0,21.0,53,0.00,,,0.07,Wunderground v.1.15,2013-06-29 22:16:00,
2013-06-29 16:18:00,69.8,52.4,22.79,NNW,336,1.0,21.0,54,0.00,,,0.07,Wunderground v.1.15,2013-06-29 22:18:00,
2013-06-29 16:20:00,69.7,52.8,22.79,North,355,1.0,21.0,55,0.00,,,0.07,Wunderground v.1.15,2013-06-29 22:20:00,
2013-06-29 16:24:00,69.4,52.0,22.79,ENE,74,1.0,21.0,54,0.00,,,0.07,Wunderground v.1.15,2013-06-29 22:24:00,
2013-06-29 16:30:00,68.8,52.0,22.80,NE,47,2.0,21.0,55,0.00,,,0.07,Wunderground v.1.15,2013-06-29 22:30:00,
2013-06-29 16:34:00,68.6,52.8,22.80,WSW,249,1.0,21.0,57,0.00,,,0.07,Wunderground v.1.15,2013-06-29 22:34:00,
2013-06-29 16:36:00,68.6,53.2,22.80,WSW,249,1.0,21.0,58,0.00,,,0.07,Wunderground v.1.15,2013-06-29 22:36:00,
2013-06-29 16:40:00,68.5,53.1,22.80,WSW,250,0.0,21.0,58,0.00,,,0.07,Wunderground v.1.15,2013-06-29 22:40:00,
2013-06-29 16:42:00,68.3,52.5,22.80,WSW,253,0.0,21.0,57,0.00,,,0.07,Wunderground v.1.15,2013-06-29 22:42:00,
2013-06-29 16:46:00,68.0,52.2,22.80,WSW,251,1.0,21.0,57,0.00,,,0.07,Wunderground v.1.15,2013-06-29 22:46:00,
2013-06-29 16:52:00,66.9,52.1,22.80,SW,222,3.0,3.0,59,0.00,,,0.07,Wunderground v.1.15,2013-06-29 22:52:00,
2013-06-29 16:54:00,66.4,51.2,22.80,SSW,198,4.0,4.0,58,0.00,,,0.07,Wunderground v.1.15,2013-06-29 22:54:00,
2013-06-29 16:56:00,66.0,51.7,22.79,SW,236,5.0,5.0,60,0.00,,,0.07,Wunderground v.1.15,2013-06-29 22:56:00,
2013-06-29 16:58:00,65.7,51.9,22.79,SW,218,5.0,21.0,61,0.00,,,0.07,Wunderground v.1.15,2013-06-29 22:58:00,
2013-06-29 17:00:00,65.6,51.8,22.78,WSW,243,4.0,21.0,61,0.00,,,0.07,Wunderground v.1.15,2013-06-29 23:00:00,
2013-06-29 17:02:00,65.7,50.0,22.78,SSW,207,5.0,5.0,57,0.00,,,0.07,Wunderground v.1.15,2013-06-29 23:02:00,
2013-06-29 17:06:00,66.2,51.0,22.78,SW,232,4.0,21.0,58,0.00,,,0.07,Wunderground v.1.15,2013-06-29 23:06:00,
2013-06-29 17:12:00,67.3,48.0,22.78,South,187,3.0,3.0,50,0.00,,,0.07,Wunderground v.1.15,2013-06-29 23:12:00,
2013-06-29 17:14:00,67.9,49.6,22.78,SSW,203,3.0,21.0,52,0.00,,,0.07,Wunderground v.1.15,2013-06-29 23:14:00,
2013-06-29 17:18:00,68.4,49.0,22.77,SSE,153,3.0,21.0,50,0.00,,,0.07,Wunderground v.1.15,2013-06-29 23:18:00,
2013-06-29 17:20:00,68.6,47.0,22.77,WSW,246,2.0,21.0,46,0.00,,,0.07,Wunderground v.1.15,2013-06-29 23:20:00,
2013-06-29 17:22:00,68.7,47.6,22.77,SW,215,2.0,2.0,47,0.00,,,0.07,Wunderground v.1.15,2013-06-29 23:22:00,
2013-06-29 17:26:00,69.0,47.4,22.77,West,267,1.0,21.0,46,0.00,,,0.07,Wunderground v.1.15,2013-06-29 23:26:00,
2013-06-29 17:28:00,69.1,48.0,22.77,West,260,1.0,21.0,47,0.00,,,0.07,Wunderground v.1.15,2013-06-29 23:28:00,
2013-06-29 17:32:00,69.4,48.9,22.77,NW,306,1.0,1.0,48,0.00,,,0.07,Wunderground v.1.15,2013-06-29 23:32:00,
2013-06-29 17:34:00,69.6,48.5,22.77,NW,307,0.0,21.0,47,0.00,,,0.07,Wunderground v.1.15,2013-06-29 23:34:00,
2013-06-29 17:38:00,69.9,50.4,22.77,NW,325,0.0,21.0,50,0.00,,,0.07,Wunderground v.1.15,2013-06-29 23:38:00,
2013-06-29 17:42:00,69.7,49.1,22.77,North,11,1.0,21.0,48,0.00,,,0.07,Wunderground v.1.15,2013-06-29 23:42:00,
2013-06-29 17:44:00,69.6,50.1,22.77,NW,323,1.0,21.0,50,0.00,,,0.07,Wunderground v.1.15,2013-06-29 23:44:00,
2013-06-29 17:46:00,69.5,50.0,22.77,West,279,1.0,21.0,50,0.00,,,0.07,Wunderground v.1.15,2013-06-29 23:46:00,
2013-06-29 17:50:00,69.8,49.2,22.77,NW,319,1.0,21.0,48,0.00,,,0.07,Wunderground v.1.15,2013-06-29 23:50:00,
2013-06-29 17:55:00,70.3,49.1,22.77,WNW,286,1.0,21.0,47,0.00,,,0.07,Wunderground v.1.15,2013-06-29 23:55:00,
2013-06-29 17:56:00,70.6,49.4,22.77,NNE,19,1.0,21.0,47,0.00,,,0.07,Wunderground v.1.15,2013-06-29 23:56:00,
2013-06-29 17:59:00,70.9,49.1,22.77,SW,225,1.0,21.0,46,0.00,,,0.07,Wunderground v.1.15,2013-06-29 23:59:00,
2013-06-29 18:00:00,71.0,48.6,22.76,SSW,203,1.0,21.0,45,0.00,,,0.07,Wunderground v.1.15,2013-06-30 00:00:00,
2013-06-29 18:06:00,71.6,47.9,22.76,WSW,238,1.0,21.0,43,0.00,,,0.07,Wunderground v.1.15,2013-06-30 00:06:00,
2013-06-29 18:08:00,71.9,47.6,22.76,West,260,1.0,21.0,42,0.00,,,0.07,Wunderground v.1.15,2013-06-30 00:08:00,
2013-06-29 18:10:00,72.2,47.2,22.76,WSW,252,1.0,21.0,41,0.00,,,0.07,Wunderground v.1.15,2013-06-30 00:10:00,
2013-06-29 18:14:00,72.6,47.5,22.76,WSW,240,1.0,21.0,41,0.00,,,0.07,Wunderground v.1.15,2013-06-30 00:14:00,
2013-06-29 18:18:00,73.2,47.4,22.76,West,262,1.0,21.0,40,0.00,,,0.07,Wunderground v.1.15,2013-06-30 00:18:00,
2013-06-29 18:20:00,73.2,46.1,22.76,SSW,204,1.0,21.0,38,0.00,,,0.07,Wunderground v.1.15,2013-06-30 00:20:00,
2013-06-29 18:22:00,73.3,46.8,22.76,WSW,254,1.0,21.0,39,0.00,,,0.07,Wunderground v.1.15,2013-06-30 00:22:00,
2013-06-29 18:26:00,73.0,45.9,22.76,WSW,242,2.0,21.0,38,0.00,,,0.07,Wunderground v.1.15,2013-06-30 00:26:00,
2013-06-29 18:28:00,72.8,45.0,22.76,WSW,249,2.0,21.0,37,0.00,,,0.07,Wunderground v.1.15,2013-06-30 00:28:00,
2013-06-29 18:30:00,72.8,45.0,22.76,SSW,212,2.0,21.0,37,0.00,,,0.07,Wunderground v.1.15,2013-06-30 00:30:00,
2013-06-29 18:34:00,72.4,43.9,22.76,WSW,242,2.0,21.0,36,0.00,,,0.07,Wunderground v.1.15,2013-06-30 00:34:00,
2013-06-29 18:36:00,72.1,43.7,22.76,WSW,249,2.0,21.0,36,0.00,,,0.07,Wunderground v.1.15,2013-06-30 00:36:00,
2013-06-29 18:38:00,72.0,45.0,22.76,SW,232,2.0,21.0,38,0.00,,,0.07,Wunderground v.1.15,2013-06-30 00:38:00,
2013-06-29 18:40:00,71.8,44.1,22.76,SW,226,2.0,21.0,37,0.00,,,0.07,Wunderground v.1.15,2013-06-30 00:40:00,
2013-06-29 18:46:00,71.2,44.3,22.76,WSW,249,2.0,21.0,38,0.00,,,0.07,Wunderground v.1.15,2013-06-30 00:46:00,
2013-06-29 18:48:00,71.2,45.6,22.76,WSW,249,1.0,21.0,40,0.00,,,0.07,Wunderground v.1.15,2013-06-30 00:48:00,
2013-06-29 18:50:00,71.2,44.3,22.76,WSW,249,1.0,21.0,38,0.00,,,0.07,Wunderground v.1.15,2013-06-30 00:50:00,
2013-06-29 18:52:00,71.2,44.3,22.76,WSW,249,1.0,1.0,38,0.00,,,0.07,Wunderground v.1.15,2013-06-30 00:52:00,
2013-06-29 18:56:00,71.1,44.2,22.76,WSW,249,0.0,21.0,38,0.00,,,0.07,Wunderground v.1.15,2013-06-30 00:56:00,
2013-06-29 18:58:00,71.0,44.8,22.76,WSW,249,0.0,21.0,39,0.00,,,0.07,Wunderground v.1.15,2013-06-30 00:58:00,
2013-06-29 19:00:00,71.0,45.5,22.76,WSW,249,0.0,21.0,40,0.00,,,0.07,Wunderground v.1.15,2013-06-30 01:00:00,
2013-06-29 19:04:00,71.1,43.5,22.76,WSW,249,0.0,21.0,37,0.00,,,0.07,Wunderground v.1.15,2013-06-30 01:04:00,
2013-06-29 19:06:00,71.2,44.3,22.76,WSW,249,0.0,21.0,38,0.00,,,0.07,Wunderground v.1.15,2013-06-30 01:06:00,
2013-06-29 19:08:00,71.1,44.2,22.76,WSW,249,0.0,21.0,38,0.00,,,0.07,Wunderground v.1.15,2013-06-30 01:08:00,
2013-06-29 19:10:00,71.0,44.8,22.76,WSW,242,0.0,21.0,39,0.00,,,0.07,Wunderground v.1.15,2013-06-30 01:10:00,
2013-06-29 19:14:00,70.7,44.5,22.76,SSW,209,1.0,21.0,39,0.00,,,0.07,Wunderground v.1.15,2013-06-30 01:14:00,
2013-06-29 19:16:00,70.6,45.7,22.76,SSW,208,1.0,21.0,41,0.00,,,0.07,Wunderground v.1.15,2013-06-30 01:16:00,
2013-06-29 19:20:00,70.6,43.7,22.76,SSW,208,1.0,21.0,38,0.00,,,0.07,Wunderground v.1.15,2013-06-30 01:20:00,
2013-06-29 19:22:00,70.6,43.7,22.76,SE,133,0.0,21.0,38,0.00,,,0.07,Wunderground v.1.15,2013-06-30 01:22:00,
2013-06-29 19:26:00,70.5,44.3,22.76,SE,132,0.0,21.0,39,0.00,,,0.07,Wunderground v.1.15,2013-06-30 01:26:00,
2013-06-29 19:28:00,70.4,44.3,22.76,SE,133,0.0,21.0,39,0.00,,,0.07,Wunderground v.1.15,2013-06-30 01:28:00,
2013-06-29 19:30:00,70.3,44.2,22.76,SE,133,0.0,21.0,39,0.00,,,0.07,Wunderground v.1.15,2013-06-30 01:30:00,
2013-06-29 19:32:00,70.3,45.5,22.76,SE,133,0.0,21.0,41,0.00,,,0.07,Wunderground v.1.15,2013-06-30 01:32:00,
2013-06-29 19:36:00,70.0,45.2,22.76,SE,133,0.0,21.0,41,0.00,,,0.07,Wunderground v.1.15,2013-06-30 01:36:00,
2013-06-29 19:38:00,69.9,45.8,22.76,SE,133,0.0,21.0,42,0.00,,,0.07,Wunderground v.1.15,2013-06-30 01:38:00,
2013-06-29 19:44:00,69.3,46.4,22.76,SE,131,0.0,21.0,44,0.00,,,0.07,Wunderground v.1.15,2013-06-30 01:44:00,
2013-06-29 19:46:00,69.1,47.4,22.76,SE,131,0.0,21.0,46,0.00,,,0.07,Wunderground v.1.15,2013-06-30 01:46:00,
2013-06-29 19:50:00,68.3,47.3,22.76,SE,131,0.0,21.0,47,0.00,,,0.07,Wunderground v.1.15,2013-06-30 01:50:00,
2013-06-29 19:52:00,68.1,47.7,22.76,SE,131,0.0,21.0,48,0.00,,,0.07,Wunderground v.1.15,2013-06-30 01:52:00,
2013-06-29 19:54:00,67.7,47.8,22.76,SE,131,0.0,21.0,49,0.00,,,0.07,Wunderground v.1.15,2013-06-30 01:54:00,
2013-06-29 19:58:00,67.1,48.4,22.76,SE,131,0.0,21.0,51,0.00,,,0.07,Wunderground v.1.15,2013-06-30 01:58:00,
2013-06-29 20:02:00,66.6,47.4,22.76,SE,131,0.0,21.0,50,0.00,,,0.07,Wunderground v.1.15,2013-06-30 02:02:00,
2013-06-29 20:04:00,66.3,47.6,22.76,SE,131,0.0,21.0,51,0.00,,,0.07,Wunderground v.1.15,2013-06-30 02:04:00,
2013-06-29 20:08:00,65.9,46.7,22.76,SE,131,0.0,21.0,50,0.00,,,0.07,Wunderground v.1.15,2013-06-30 02:08:00,
2013-06-29 20:10:00,65.8,47.2,22.76,SE,131,0.0,21.0,51,0.00,,,0.07,Wunderground v.1.15,2013-06-30 02:10:00,
2013-06-29 20:16:00,65.2,48.1,22.76,SE,131,0.0,21.0,54,0.00,,,0.07,Wunderground v.1.15,2013-06-30 02:16:00,
2013-06-29 20:20:00,64.8,47.3,22.76,SE,131,0.0,21.0,53,0.00,,,0.07,Wunderground v.1.15,2013-06-30 02:20:00,
2013-06-29 20:22:00,64.6,47.6,22.77,SE,131,0.0,21.0,54,0.00,,,0.07,Wunderground v.1.15,2013-06-30 02:22:00,
2013-06-29 20:24:00,64.5,47.5,22.77,SE,131,0.0,21.0,54,0.00,,,0.07,Wunderground v.1.15,2013-06-30 02:24:00,
2013-06-29 20:26:00,64.3,47.8,22.77,SE,131,0.0,21.0,55,0.00,,,0.07,Wunderground v.1.15,2013-06-30 02:26:00,
2013-06-29 20:30:00,63.9,47.4,22.77,SE,131,0.0,21.0,55,0.00,,,0.07,Wunderground v.1.15,2013-06-30 02:30:00,
2013-06-29 20:32:00,63.7,47.2,22.77,SE,131,0.0,21.0,55,0.00,,,0.07,Wunderground v.1.15,2013-06-30 02:32:00,
2013-06-29 20:38:00,63.2,47.7,22.77,SE,133,0.0,21.0,57,0.00,,,0.07,Wunderground v.1.15,2013-06-30 02:38:00,
2013-06-29 20:40:00,63.1,47.6,22.77,SE,133,0.0,21.0,57,0.00,,,0.07,Wunderground v.1.15,2013-06-30 02:40:00,
2013-06-29 20:44:00,62.8,48.3,22.77,SE,133,0.0,21.0,59,0.00,,,0.07,Wunderground v.1.15,2013-06-30 02:44:00,
2013-06-29 20:48:00,62.5,48.9,22.77,SE,133,0.0,21.0,61,0.00,,,0.07,Wunderground v.1.15,2013-06-30 02:48:00,
2013-06-29 20:50:00,62.3,48.2,22.77,SE,133,0.0,21.0,60,0.00,,,0.07,Wunderground v.1.15,2013-06-30 02:50:00,
2013-06-29 20:52:00,62.1,48.5,22.77,SE,133,0.0,21.0,61,0.00,,,0.07,Wunderground v.1.15,2013-06-30 02:52:00,
2013-06-29 20:54:00,62.0,48.4,22.77,SE,133,0.0,21.0,61,0.00,,,0.07,Wunderground v.1.15,2013-06-30 02:54:00,
2013-06-29 21:00:00,61.8,48.2,22.77,SE,132,0.0,21.0,61,0.00,,,0.07,Wunderground v.1.15,2013-06-30 03:00:00,
2013-06-29 21:02:00,61.8,48.2,22.77,SE,132,0.0,21.0,61,0.00,,,0.07,Wunderground v.1.15,2013-06-30 03:02:00,
2013-06-29 21:06:00,61.9,48.7,22.77,SE,134,0.0,21.0,62,0.00,,,0.07,Wunderground v.1.15,2013-06-30 03:06:00,
2013-06-29 21:08:00,61.8,49.1,22.78,SE,133,0.0,21.0,63,0.00,,,0.07,Wunderground v.1.15,2013-06-30 03:08:00,
2013-06-29 21:10:00,61.7,49.0,22.78,SE,134,0.0,21.0,63,0.00,,,0.07,Wunderground v.1.15,2013-06-30 03:10:00,
2013-06-29 21:12:00,61.6,49.3,22.78,SE,134,0.0,21.0,64,0.00,,,0.07,Wunderground v.1.15,2013-06-30 03:12:00,
2013-06-29 21:16:00,61.2,49.3,22.78,SE,134,0.0,21.0,65,0.00,,,0.07,Wunderground v.1.15,2013-06-30 03:16:00,
2013-06-29 21:18:00,61.1,49.2,22.78,SE,134,0.0,21.0,65,0.00,,,0.07,Wunderground v.1.15,2013-06-30 03:18:00,
2013-06-29 21:22:00,60.7,48.9,22.78,SE,133,0.0,21.0,65,0.00,,,0.07,Wunderground v.1.15,2013-06-30 03:22:00,
2013-06-29 21:24:00,60.5,49.1,22.78,SE,133,0.0,21.0,66,0.00,,,0.07,Wunderground v.1.15,2013-06-30 03:24:00,
2013-06-29 21:28:00,60.3,48.5,22.79,SE,132,0.0,21.0,65,0.00,,,0.07,Wunderground v.1.15,2013-06-30 03:28:00,
2013-06-29 21:30:00,60.1,48.7,22.78,SE,132,0.0,21.0,66,0.00,,,0.07,Wunderground v.1.15,2013-06-30 03:30:00,
2013-06-29 21:32:00,60.0,48.6,22.79,SE,133,0.0,21.0,66,0.00,,,0.07,Wunderground v.1.15,2013-06-30 03:32:00,
2013-06-29 21:38:00,59.9,48.9,22.79,SE,133,0.0,21.0,67,0.00,,,0.07,Wunderground v.1.15,2013-06-30 03:38:00,
2013-06-29 21:40:00,59.8,48.4,22.79,SE,133,0.0,21.0,66,0.00,,,0.07,Wunderground v.1.15,2013-06-30 03:40:00,
2013-06-29 21:42:00,59.9,48.9,22.79,SE,132,0.0,21.0,67,0.00,,,0.07,Wunderground v.1.15,2013-06-30 03:42:00,
2013-06-29 21:44:00,59.9,48.9,22.79,SE,133,0.0,21.0,67,0.00,,,0.07,Wunderground v.1.15,2013-06-30 03:44:00,
2013-06-29 21:46:00,59.9,48.9,22.79,SE,132,0.0,21.0,67,0.00,,,0.07,Wunderground v.1.15,2013-06-30 03:46:00,
2013-06-29 21:50:00,59.7,49.5,22.79,SE,134,0.0,21.0,69,0.00,,,0.07,Wunderground v.1.15,2013-06-30 03:50:00,
2013-06-29 21:52:00,59.5,49.3,22.80,SE,134,0.0,21.0,69,0.00,,,0.07,Wunderground v.1.15,2013-06-30 03:52:00,
2013-06-29 21:58:00,59.2,49.0,22.80,SE,134,0.0,21.0,69,0.00,,,0.07,Wunderground v.1.15,2013-06-30 03:58:00,
2013-06-29 22:00:00,59.2,49.0,22.80,SE,134,0.0,21.0,69,0.00,,,0.07,Wunderground v.1.15,2013-06-30 04:00:00,
2013-06-29 22:02:00,59.2,49.0,22.80,SE,134,0.0,21.0,69,0.00,,,0.07,Wunderground v.1.15,2013-06-30 04:02:00,
2013-06-29 22:06:00,59.2,49.0,22.80,SE,132,0.0,21.0,69,0.00,,,0.07,Wunderground v.1.15,2013-06-30 04:06:00,
2013-06-29 22:08:00,59.3,48.7,22.80,SE,132,0.0,21.0,68,0.00,,,0.07,Wunderground v.1.15,2013-06-30 04:08:00,
2013-06-29 22:10:00,59.3,49.1,22.80,South,173,0.0,21.0,69,0.00,,,0.07,Wunderground v.1.15,2013-06-30 04:10:00,
2013-06-29 22:14:00,59.2,49.0,22.80,SSE,162,0.0,21.0,69,0.00,,,0.07,Wunderground v.1.15,2013-06-30 04:14:00,
2013-06-29 22:16:00,59.0,48.8,22.80,SSE,162,0.0,21.0,69,0.00,,,0.07,Wunderground v.1.15,2013-06-30 04:16:00,
2013-06-29 22:20:00,58.8,49.0,22.80,SSE,162,0.0,21.0,70,0.00,,,0.07,Wunderground v.1.15,2013-06-30 04:20:00,
2013-06-29 22:22:00,58.6,48.8,22.80,SSE,162,0.0,21.0,70,0.00,,,0.07,Wunderground v.1.15,2013-06-30 04:22:00,
2013-06-29 22:28:00,58.2,48.8,22.80,NW,309,0.0,21.0,71,0.00,,,0.07,Wunderground v.1.15,2013-06-30 04:28:00,
2013-06-29 22:30:00,58.1,48.7,22.80,NW,311,0.0,21.0,71,0.00,,,0.07,Wunderground v.1.15,2013-06-30 04:30:00,
2013-06-29 22:32:00,57.9,48.9,22.80,NW,311,1.0,21.0,72,0.00,,,0.07,Wunderground v.1.15,2013-06-30 04:32:00,
2013-06-29 22:34:00,57.8,48.8,22.80,NW,311,1.0,21.0,72,0.00,,,0.07,Wunderground v.1.15,2013-06-30 04:34:00,
2013-06-29 22:36:00,57.6,48.6,22.80,NW,309,1.0,21.0,72,0.00,,,0.07,Wunderground v.1.15,2013-06-30 04:36:00,
2013-06-29 22:40:00,57.4,48.8,22.81,NW,309,0.0,21.0,73,0.00,,,0.07,Wunderground v.1.15,2013-06-30 04:40:00,
2013-06-29 22:42:00,57.3,49.1,22.81,NW,309,0.0,21.0,74,0.00,,,0.07,Wunderground v.1.15,2013-06-30 04:42:00,
2013-06-29 22:46:00,57.1,49.2,22.80,NW,316,0.0,21.0,75,0.00,,,0.07,Wunderground v.1.15,2013-06-30 04:46:00,
2013-06-29 22:48:00,57.0,49.2,22.81,NW,316,1.0,21.0,75,0.00,,,0.07,Wunderground v.1.15,2013-06-30 04:48:00,
2013-06-29 22:50:00,56.9,49.1,22.80,NW,316,1.0,21.0,75,0.00,,,0.07,Wunderground v.1.15,2013-06-30 04:50:00,
2013-06-29 22:52:00,56.9,49.1,22.80,NW,316,1.0,21.0,75,0.00,,,0.07,Wunderground v.1.15,2013-06-30 04:52:00,
2013-06-29 22:56:00,56.9,49.1,22.80,NW,318,0.0,21.0,75,0.00,,,0.07,Wunderground v.1.15,2013-06-30 04:56:00,
2013-06-29 22:58:00,56.9,49.1,22.80,NW,318,0.0,21.0,75,0.00,,,0.07,Wunderground v.1.15,2013-06-30 04:58:00,
2013-06-29 23:00:00,56.8,49.0,22.80,NW,318,0.0,21.0,75,0.00,,,0.07,Wunderground v.1.15,2013-06-30 05:00:00,
2013-06-29 23:02:00,56.7,49.2,22.80,NW,317,0.0,21.0,76,0.00,,,0.07,Wunderground v.1.15,2013-06-30 05:02:00,
2013-06-29 23:06:00,56.6,49.1,22.80,NW,318,0.0,21.0,76,0.00,,,0.07,Wunderground v.1.15,2013-06-30 05:06:00,
2013-06-29 23:08:00,56.6,49.1,22.80,NW,317,0.0,21.0,76,0.00,,,0.07,Wunderground v.1.15,2013-06-30 05:08:00,
2013-06-29 23:10:00,56.6,49.1,22.80,NW,318,0.0,21.0,76,0.00,,,0.07,Wunderground v.1.15,2013-06-30 05:10:00,
2013-06-29 23:14:00,56.7,48.9,22.80,NW,317,0.0,21.0,75,0.00,,,0.07,Wunderground v.1.15,2013-06-30 05:14:00,
2013-06-29 23:16:00,56.7,48.9,22.80,NW,317,0.0,21.0,75,0.00,,,0.07,Wunderground v.1.15,2013-06-30 05:16:00,
2013-06-29 23:18:00,56.9,49.1,22.80,NW,317,0.0,21.0,75,0.00,,,0.07,Wunderground v.1.15,2013-06-30 05:18:00,
2013-06-29 23:20:00,56.9,49.1,22.80,NW,317,0.0,21.0,75,0.00,,,0.07,Wunderground v.1.15,2013-06-30 05:20:00,
2013-06-29 23:26:00,56.7,48.9,22.80,NW,318,0.0,21.0,75,0.00,,,0.07,Wunderground v.1.15,2013-06-30 05:26:00,
2013-06-29 23:28:00,56.6,49.1,22.80,NW,317,0.0,21.0,76,0.00,,,0.07,Wunderground v.1.15,2013-06-30 05:28:00,
2013-06-29 23:32:00,56.4,48.9,22.80,NW,318,0.0,21.0,76,0.00,,,0.07,Wunderground v.1.15,2013-06-30 05:32:00,
2013-06-29 23:34:00,56.3,48.8,22.80,NW,318,0.0,21.0,76,0.00,,,0.07,Wunderground v.1.15,2013-06-30 05:34:00,
2013-06-29 23:36:00,56.3,48.8,22.80,NW,318,0.0,21.0,76,0.00,,,0.07,Wunderground v.1.15,2013-06-30 05:36:00,
2013-06-29 23:38:00,56.4,48.9,22.80,NW,318,0.0,21.0,76,0.00,,,0.07,Wunderground v.1.15,2013-06-30 05:38:00,
2013-06-29 23:40:00,56.5,49.0,22.80,NW,318,0.0,21.0,76,0.00,,,0.07,Wunderground v.1.15,2013-06-30 05:40:00,
2013-06-29 23:42:00,56.5,49.0,22.80,NW,317,0.0,21.0,76,0.00,,,0.07,Wunderground v.1.15,2013-06-30 05:42:00,
2013-06-29 23:44:00,56.4,48.9,22.80,NW,318,0.0,21.0,76,0.00,,,0.07,Wunderground v.1.15,2013-06-30 05:44:00,
2013-06-29 23:48:00,56.4,48.9,22.80,NE,53,0.0,21.0,76,0.00,,,0.07,Wunderground v.1.15,2013-06-30 05:48:00,
2013-06-29 23:50:00,56.3,48.8,22.81,NE,37,1.0,21.0,76,0.00,,,0.07,Wunderground v.1.15,2013-06-30 05:50:00,
2013-06-29 23:54:00,56.4,48.9,22.81,NW,326,1.0,21.0,76,0.00,,,0.07,Wunderground v.1.15,2013-06-30 05:54:00,
2013-06-29 23:56:00,56.4,48.9,22.81,NW,326,1.0,21.0,76,0.00,,,0.07,Wunderground v.1.15,2013-06-30 05:56:00,